Voltar ao catálogo

RANDEV

AtivoCiênciaSSO
NORAD 52898·PAYLOAD·🇰🇷 South Korea

Lançado Jun 21, 2022 de Naro Space Center

Loading…

Próximas Passagens (próximas 24 horas)

TLE

AtualizadoSource: Space-Track

Época: Sep 14, 2026, 14:49 UTC

1 52898U 22065E   26257.61788486  .00000459  00000-0  97232-4 0  9992
2 52898  98.2343  41.7076 0009155 102.8212 257.4014 14.63810127224334

Acompanhe RANDEV em tempo real com AllMySat

Download on the App Store